User: anonymous   Login
Location: Chevoux
(46.3801°N, 4.9476°E)
Time: 20:18:46
(UTC+00:00)
Language:

Cosmos-2242 - Orbit

View from above orbital plane
View from above orbital plane
View from above satellite
View from above satellite

Ground track
Ground track

The orbit data is extracted from the following two-line orbital elements,

1 22626U 93024A   21103.12741189  .00000216  00000-0  20730-4 0  9991
2 22626  82.5228 165.3273 0019473 161.3809 198.8125 14.88106864513724
Epoch (UTC): 13 April 2021 03:03:28
Eccentricity: 0.0019473
inclination: 82.5228°
perigee height: 590 km
apogee height: 617 km
right ascension of ascending node: 165.3273°
argument of perigee: 161.3809°
revolutions per day: 14.88106864
mean anomaly at epoch: 198.8125°
orbit number at epoch: 51372

The dashed part of the orbit path shows where the satellite is in the earth's shadow,  

DLR